Voltar ao catálogo

IRIDIUM 107

AtivoComunicaçõesPO
NORAD 42960·PAYLOAD·🇺🇸 United States

Lançado Oct 9, 2017 de Vandenberg Space Force Base

Loading…

Próximas Passagens (próximas 24 horas)

TLE

AtualizadoSource: CelesTrak SupGP

Época: Sep 14, 2026, 21:29 UTC

1 42960C 17061F   26257.89548611 -.00002577  00000+0 -92140-3 0  2578
2 42960  86.4028 347.7864 0002309  90.7839  50.9747 14.34220367    15

Acompanhe IRIDIUM 107 em tempo real com AllMySat

Download on the App Store